Location: Castillon
(43.0896°N, 0.2156°E)
Time: 02:55:14
(UTC+00:00)

Cosmos 1980 Rocket - Pass Details

Date: 19 October 2021
Orbit: 828 x 851 km, 71.0° (Epoch: 07 December)

Event Time Altitude Azimuth Distance (km) Brightness Sun altitude
Exits shadow 05:10:17 17° 260° (W) 2,008 3.5 -13.0°
Drops below altitude 10° 05:13:43 10° 222° (SW) 2,468 4.3 -12.4°
Sets 05:16:58 0° 203° (SSW) 3,395 5.1 -11.8°
